Location: McKinney
(33.1972°N, 96.6398°W)
Time: 15:48:25
(UTC-05:00)

Hubble Space Telescope - Visible Passes

Search period start: 19 October 2019 00:00
Search period end: 29 October 2019 00:00
Orbit: 536 x 540 km, 28.5° (Epoch: 19 October)

Date Brightness Start Highest point End Pass type
(mag) Time Alt. Az. Time Alt. Az. Time Alt. Az.
26 Oct 3.5 06:35:17 10° S 06:37:00 12° SSE 06:38:43 10° SE visible
27 Oct 3.3 06:23:52 10° SSW 06:26:19 15° SSE 06:28:46 10° ESE visible
28 Oct 3.0 06:13:06 11° SSW 06:15:39 19° SSE 06:18:33 10° ESE visible
